Location: *
(50.8512°N, 5.6907°E)
Time: 02:12:18
(UTC+00:00)

FALCON 9 DEB - Pass Details

Date: 09 April 2020
Orbit: 428 x 442 km, 53.0° (Epoch: 03 June)

Event Time Altitude Azimuth Distance (km) Brightness Sun altitude
Rises 21:03:18 0° 260° (W) 2,431 7.4 -22.3°
Reaches altitude 10° 21:05:26 10° 263° (W) 1,561 6.3 -22.5°
Enters shadow 21:08:16 53° 286° (WNW) 552 3.8 -22.8°
